User: anonymous   Login
Location: *
(47.6569°N, 7.4256°E)
Time: 08:30:23
(UTC+00:00)
Language:

Helios 1A Rocket - Orbit

View from above orbital plane
View from above orbital plane
View from above satellite
View from above satellite

Ground track
Ground track

The orbit data is extracted from the following two-line orbital elements,

1 23608U 95033D   20055.91788851 -.00000273 +00000-0 -17741-4 0  9996
2 23608 098.3247 059.9000 0015390 252.9831 106.9703 14.97216130334454
Epoch (UTC): 24 February 2020 22:01:45
Eccentricity: 0.0015390
inclination: 98.3247°
perigee height: 565 km
apogee height: 586 km
right ascension of ascending node: 59.9000°
argument of perigee: 252.9831°
revolutions per day: 14.97216130
mean anomaly at epoch: 106.9703°
orbit number at epoch: 33445

The dashed part of the orbit path shows where the satellite is in the earth's shadow,  

DLR